Find Kosmos-2371

NORAD ID: 26394 Int'l Des: 2000-036 Owner: VKSR Country: RU operational
HEOCIRCULARGSO

当前视图

正在加载3D地球...

关于 Kosmos-2371

正在加载描述...

即将过境

Passes for default location (London). Set your location on the main map for personalized predictions.

高度历史

Loading altitude history...

两行轨道根数

1 26394U 00036A 26149.92439230 -.00000064 00000-0 00000+0 0 9997
2 26394 13.9821 7.6498 0001921 169.3089 113.5232 1.00270647 94853
Epoch: May 29, 2026 • Age: 18 hours

当前状态

高度 35779.5 km
速度 3.08 km/s
星下点 -3.13°S, 69.9°E
发射日期 Jul 4, 2000
运行时间 25.9 years
类型 other

技术详情

分类 Payload
质量 2100.00 kg
干质量 2000.00 kg
总质量 2100.00 kg
长度 5.50 m
直径 2.50 m
跨度 9.00 m
形状 Cyl + 2 Pan
制造商 NPOPMR
平台类型 Geizer
阶段状态 In Orbit
所有者/国家 VKSR/RU

Most Searched